Manhattan, KS

9:42 PM CDT on June 28, 2017 (GMT -0500)
Manhattan Regional

Weather History for KMHK - September, 2011

Change the Weather History Date:

Saturday, September 10, 2011

  Actual Average Record
Temperature  
Mean Temperature 68 °F 70 °F  
Max Temperature 82 °F 83 °F 102 °F (2000)
Min Temperature 55 °F 57 °F 45 °F (2001)
Degree Days  
Heating Degree Days 0 1  
Month to date heating degree days 5  
Since 1 July heating degree days 8  
Cooling Degree Days 4 6  
Month to date cooling degree days 76  
Year to date cooling degree days 1259  
Growing Degree Days 18 (Base 50)    
Moisture  
Dew Point 57 °F    
Average Humidity 72    
Maximum Humidity 97    
Minimum Humidity 37    
Precipitation  
Precipitation 0.01 in 0.11 in 2.73 in (2015)
Month to date precipitation 1.35  
Year to date precipitation 25.89  
Sea Level Pressure  
Sea Level Pressure 30.02 in    
Wind  
Wind Speed 2 mph (NE)    
Max Wind Speed 10 mph    
Max Gust Speed -    
Visibility 10 miles    
Events      
T = Trace of Precipitation, MM = Missing Value Source: NWS Daily Summary

Daily Weather History Graph

Daily Weather History Graph

Search for Another Location

Airport or City:

Trip Planner

Search our weather history database for the weather conditions in past years. The results will help you decide how hot, cold, wet, or windy it might be!

Date:

Astronomy

Sep. 10, 2011 Rise Set
Actual Time 7:03 AM CDT 7:43 PM CDT
Civil Twilight 6:36 AM CDT 8:10 PM CDT
Nautical Twilight 6:04 AM CDT 8:42 PM CDT
Astronomical Twilight 5:31 AM CDT 9:14 PM CDT
Moon 6:38 PM CDT (9/10) 5:25 AM CDT (9/10)
Length of Visible Light 13h 34m
Length of Day
12h 40m
Waxing Gibbous, 97% of the Moon is Illuminated
Sep 10
Waxing Gibbous
Sep 12
Full
Sep 20
Last Quarter
Sep 27
New
Oct 3
First Quarter

Hourly Weather History & Observations

Time (CDT) Temp. Heat Index Dew Point Humidity Pressure Visibility Wind Dir Wind Speed Gust Speed Precip Events Conditions
12:12 AM 60.8 °F - 59.0 °F 94% 30.02 in 10.0 mi SSW 4.6 mph - N/A   Partly Cloudy
12:52 AM 61.0 °F - 59.0 °F 93% 29.99 in 10.0 mi Calm Calm - N/A   Partly Cloudy
1:52 AM 60.1 °F - 59.0 °F 96% 29.99 in 10.0 mi Calm Calm - N/A   Clear
2:52 AM 59.0 °F - 57.0 °F 93% 29.98 in 8.0 mi Calm Calm - N/A   Clear
3:52 AM 57.9 °F - 55.9 °F 93% 29.98 in 9.0 mi Calm Calm - N/A   Clear
4:52 AM 57.0 °F - 55.9 °F 96% 29.98 in 10.0 mi Calm Calm - 0.01 in   Clear
5:52 AM 55.9 °F - 55.0 °F 97% 30.00 in 10.0 mi Calm Calm - N/A   Clear
6:52 AM 57.2 °F - 55.4 °F 94% 30.02 in 10.0 mi Calm Calm - N/A   Scattered Clouds
7:52 AM 59.0 °F - 57.0 °F 93% 30.03 in 10.0 mi Calm Calm - N/A   Partly Cloudy
8:52 AM 63.0 °F - 59.0 °F 87% 30.03 in 10.0 mi Calm Calm - N/A   Clear
9:52 AM 66.9 °F - 61.0 °F 81% 30.04 in 10.0 mi Variable 3.5 mph - N/A   Clear
10:52 AM 72.0 °F - 59.0 °F 64% 30.05 in 10.0 mi East 4.6 mph - N/A   Mostly Cloudy
11:52 AM 75.9 °F - 55.9 °F 50% 30.05 in 10.0 mi NNE 5.8 mph - N/A   Scattered Clouds
12:52 PM 79.0 °F - 55.0 °F 44% 30.04 in 10.0 mi ENE 10.4 mph - N/A   Scattered Clouds
1:52 PM 79.0 °F - 53.1 °F 40% 30.02 in 10.0 mi East 4.6 mph - N/A   Clear
2:52 PM 80.1 °F 80.0 °F 54.0 °F 40% 30.02 in 10.0 mi Variable 4.6 mph - N/A   Scattered Clouds
3:52 PM 82.9 °F 81.9 °F 54.0 °F 37% 30.00 in 10.0 mi NE 5.8 mph - N/A   Partly Cloudy
4:52 PM 82.0 °F 81.2 °F 53.1 °F 37% 29.99 in 10.0 mi NNE 5.8 mph - N/A   Partly Cloudy
5:52 PM 81.0 °F 80.5 °F 54.0 °F 39% 30.00 in 10.0 mi NNE 6.9 mph - N/A   Clear
6:52 PM 79.0 °F - 55.0 °F 44% 30.00 in 10.0 mi NNE 6.9 mph - N/A   Clear
7:52 PM 73.0 °F - 57.0 °F 57% 30.01 in 10.0 mi Calm Calm - N/A   Clear
8:52 PM 69.8 °F - 59.0 °F 68% 30.04 in 10.0 mi Calm Calm - N/A   Clear
9:52 PM 66.0 °F - 60.1 °F 81% 30.04 in 10.0 mi Calm Calm - N/A   Clear
10:52 PM 63.0 °F - 60.1 °F 90% 30.04 in 10.0 mi Calm Calm - N/A   Clear
11:52 PM 62.1 °F - 59.0 °F 90% 30.05 in 10.0 mi Calm Calm - N/A   Clear